Find Starlink 1392

NORAD ID: 45677 Int'l Des: 2020-035 Owner: SPXS Country: US Constellation: starlink operational
LEOCIRCULAR

实时位置

正在加载3D地球...

关于 Starlink 1392

正在加载描述...

即将过境

Passes for default location (London). Set your location on the main map for personalized predictions.

高度历史

Loading altitude history...

两行轨道根数

1 45677U 20035W 26127.05377172 .00036774 00000-0 10555-2 0 9994
2 45677 53.1535 152.9908 0003306 45.9708 314.1567 15.35528258327702
Epoch: May 7, 2026 • Age: 7 hours

当前状态

高度 470.8 km
速度 7.63 km/s
星下点 -30.27°S, 4.85°E
发射日期 Jun 4, 2020
运行时间 5.9 years
类型 internet

技术详情

分类 Payload
质量 260.00 kg
干质量 248.00 kg
总质量 260.00 kg
长度 0.20 m
直径 2.80 m
跨度 9.00 m
形状 Box + pan
制造商 SPXS
平台类型 Starlink
阶段状态 In Orbit
所有者/国家 SPXS/US

Most Searched